This demonstration page uses our WeatherBlox Daily Observations layout. Learn more.

Left ArrowRight Arrow

34.74481, -87.66753

Hourly Observations for June 19, 2017

Temp ( °F °C ) Dew Point ( °F °C ) Humidity (%) Winds ( mph kmh ) Pressure ( in mb ) Visibility ( mi km ) Precip ( " mm )
12:53 am 00:53 Clear 71 21.7 67 19.4 87 87 Calm 29.90 1013 10 16 0.00 0.00
1:53 am 01:53 Mostly Cloudy 72 22.2 68 20 87 87 SSW 3 6 29.91 1013 10 16 0.00 0.00
2:53 am 02:53 Cloudy with Light Rain 72 22.2 69 20.6 91 91 S 3 6 29.91 1013 10 16 0.00 0.03
3:20 am 03:20 Cloudy with Light Rain 72 22.2 69 20.6 91 91 SSE 5 7 29.91 1013 10 16 0.02 0.51
3:53 am 03:53 Cloudy 72 22.2 69 20.6 91 91 Calm 29.91 1013 10 16 0.02 0.51
4:33 am 04:33 Cloudy 73 22.8 69 20.6 87 87 Calm 29.91 1013 10 16 0.00 0.03
4:53 am 04:53 Cloudy 73 22.8 70 21.1 90 90 Calm 29.91 1013 10 16 0.00 0.03
5:53 am 05:53 Cloudy 73 22.8 69 20.6 87 87 Calm 29.93 1014 10 16 0.00 0.00
6:29 am 06:29 Cloudy 73 22.8 70 21.1 90 90 Calm 29.94 1014 10 16 0.00 0.00
6:53 am 06:53 Cloudy 73 22.8 70 21.1 90 90 Calm 29.95 1014 10 16 0.00 0.00
7:53 am 07:53 Cloudy 74 23.3 70 21.1 88 88 S 5 7 29.96 1015 10 16 0.00 0.00
8:37 am 08:37 Cloudy 75 23.9 70 21.1 84 84 Calm 29.97 1015 10 16 0.00 0.00
8:53 am 08:53 Mostly Cloudy 76 24.4 70 21.1 82 82 SSW 3 6 29.97 1015 10 16 0.00 0.00
9:00 am 09:00 Mostly Cloudy 76 24.4 70 21.1 82 82 SW 3 6 29.97 1015 10 16 0.00 0.00
9:53 am 09:53 Mostly Cloudy 76 24.4 70 21.1 82 82 S 6 9 29.98 1015 10 16 0.00 0.00
10:53 am 10:53 Cloudy 77 25 71 21.7 82 82 WSW 6 9 30.01 1016 10 16 0.00 0.03
11:21 am 11:21 Cloudy with Light Rain 77 25 70 21.1 79 79 Calm 30.00 1016 10 16 0.01 0.25
11:53 am 11:53 Partly Cloudy 77 25 71 21.7 82 82 WNW 5 7 30.01 1016 10 16 0.01 0.25
12:53 pm 12:53 Partly Cloudy 78 25.6 73 22.8 85 85 NW 6 9 30.01 1016 10 16 0.05 1.27
1:00 pm 13:00 Mostly Cloudy 78 25.6 72 22.2 82 82 W 5 7 30.00 1016 10 16 0.00 0.00
1:18 pm 13:18 Mostly Cloudy 80 26.7 71 21.7 74 74 NW 6 9 30.00 1016 10 16 0.00 0.00
1:27 pm 13:27 Mostly Sunny 80 26.7 71 21.7 74 74 NW 8 13 30.00 1016 10 16 0.00 0.00
1:53 pm 13:53 Mostly Sunny 79 26.1 71 21.7 77 77 NNW 7 11 29.99 1016 10 16 0.00 0.00
2:53 pm 14:53 Mostly Sunny 79 26.1 69 20.6 72 72 Calm 29.98 1015 10 16 0.00 0.00
3:53 pm 15:53 Mostly Sunny 84 28.9 69 20.6 61 61 WNW 8 13 29.95 1014 10 16 0.00 0.00
4:53 pm 16:53 Mostly Sunny 84 28.9 68 20 59 59 VRB 3 6 29.96 1015 10 16 0.00 0.00
5:53 pm 17:53 Mostly Sunny 84 28.9 65 18.3 53 53 N 5 7 29.96 1015 10 16 0.00 0.00
6:53 pm 18:53 Sunny 83 28.3 64 17.8 53 53 VRB 3 6 29.98 1015 10 16 0.00 0.00
7:53 pm 19:53 Sunny 80 26.7 66 18.9 62 62 Calm 30.00 1016 10 16 0.00 0.00
8:53 pm 20:53 Clear 73 22.8 67 19.4 81 81 Calm 30.01 1016 10 16 0.00 0.00
9:53 pm 21:53 Clear 72 22.2 67 19.4 84 84 Calm 30.05 1018 10 16 0.00 0.00
10:53 pm 22:53 Clear 71 21.7 67 19.4 87 87 Calm 30.05 1018 10 16 0.00 0.00
11:53 pm 23:53 Clear 69 20.6 66 18.9 90 90 Calm 30.04 1017 10 16 0.00 0.00

Powered by AerisWeather